This is the latest recevied weather packets stored in our database for station/object SV9TNF-51. If no packets are shown the sender has not sent any weather packets the latest 10 day(s).
| Time | Temp. | Humidity | Pressure | Rain* | Wind** | Luminosity | Snow |
|---|---|---|---|---|---|---|---|
| 1788449957 | 30.56° C | 48% | 1009.1 hPa | 0 mm | 1.79 m/s, 133° | - | - |
| 1788449657 | 30.56° C | 48% | 1009.1 hPa | 0 mm | 0.89 m/s, 105° | - | - |
| 1788449357 | 30.56° C | 48% | 1009.1 hPa | 0 mm | 2.24 m/s, 77° | - | - |
| 1788449057 | 30.56° C | 49% | 1009.1 hPa | 0 mm | 6.26 m/s, 134° | - | - |
| 1788448757 | 30.56° C | 49% | 1009.1 hPa | 0 mm | 2.68 m/s, 138° | - | - |
| 1788448457 | 31.67° C | 47% | 1009.1 hPa | 0 mm | 1.79 m/s, 131° | - | - |
| 1788448157 | 31.11° C | 47% | 1009.1 hPa | 0 mm | 1.79 m/s, 106° | - | - |
| 1788447857 | 31.67° C | 44% | 1009.1 hPa | 0 mm | 5.81 m/s, 335° | - | - |
| 1788447556 | 31.67° C | 44% | 1009.1 hPa | 0 mm | 0.89 m/s, 131° | - | - |
| 1788447256 | 31.11° C | 45% | 1009.1 hPa | 0 mm | 5.81 m/s, 324° | - | - |
| 1788446956 | 30.56° C | 47% | 1009.1 hPa | 0 mm | 8.05 m/s, 348° | - | - |
| 1788446657 | 31.67° C | 47% | 1009.1 hPa | 0 mm | 8.05 m/s, 97° | - | - |
| 1788446356 | 31.11° C | 47% | 1009.1 hPa | 0 mm | 6.71 m/s, 329° | - | - |
| 1788446057 | 31.67° C | 47% | 1009.1 hPa | 0 mm | 3.13 m/s, 136° | - | - |
| 1788445756 | 31.67° C | 50% | 1009.1 hPa | 0 mm | 4.02 m/s, 312° | - | - |
| 1788445456 | 30.56° C | 51% | 1009.1 hPa | 0 mm | 4.92 m/s, 143° | - | - |
| 1788445156 | 30.56° C | 54% | 1009.1 hPa | 0 mm | 10.73 m/s, 82° | - | - |
| 1788444856 | 31.11° C | 53% | 1009.1 hPa | 0 mm | 5.81 m/s, 342° | - | - |
| 1788444555 | 31.67° C | 50% | 1009.1 hPa | 0 mm | 6.71 m/s, 303° | - | - |
| 1788444256 | 32.22° C | 49% | 1009.1 hPa | 0 mm | 3.13 m/s, 127° | - | - |
| 1788443955 | 31.67° C | 49% | 1009.1 hPa | 0 mm | 10.28 m/s, 325° | - | - |
| 1788443655 | 32.22° C | 48% | 1009.1 hPa | 0 mm | 4.02 m/s, 131° | - | - |
| 1788443355 | 32.22° C | 49% | 1009.1 hPa | 0 mm | 6.26 m/s, 123° | - | - |
| 1788443055 | 33.33° C | 46% | 1009.1 hPa | 0 mm | 1.34 m/s, 90° | - | - |
| 1788442755 | 33.33° C | 46% | 1009.1 hPa | 0 mm | 1.79 m/s, 137° | - | - |
* Rain latest hour (hover to see other rain measurements)
** Current wind speed in m/s (hover to see current wind gust speed)